Flag for United Kingdom Weather past 2 weeks in Saint Helier, Jersey, United Kingdom

Now
48 °F

Drizzle. Fog.


Feels Like: 42 °F
Forecast: 45 / 51 °F
Wind: 16 mph from West

Location: Jersey Airport

Current Time: Jan 26, 2015 at 5:19:03 AM

Latest Report: Jan 26, 2015 at 4:50 AM


Visibility: 0 mi

Pressure: 30.33 "Hg

Humidity: 100%

Dew point: 48 °F

Location of Saint HelierLocation

Historic Weather in Saint Helier — Graph

°F

Saint Helier temperature yesterday

Maximum temperature yesterday: 48 °F (at 10:50 AM)
Minimum temperature yesterday: 41 °F (at 4:20 AM)
Average temperature yesterday: 46 °F

Past Weeks' High & Low Weather Summary

 TemperatureHumidityPressure
High54 °F (Jan 12, 12:20 PM)100% (Jan 13, 4:20 AM)30.54 "Hg (Jan 13, 4:20 AM)
Low32 °F (Jan 22, 4:50 AM)61% (Jan 11, 6:50 AM)29.36 "Hg (Jan 15, 8:20 AM)
Average43 °F82%29.98 "Hg
* Reported Jan 11 4:20 AM — Jan 26 4:20 AM, Saint Helier, Weather by CustomWeather, © 2014

Note: Actual official high and low records may vary slightly from our data, if they occured in-between our weather recording intervals... More about our weather records

Advertising

Saint Helier weather history for previous 24 hours

 ConditionsComfort  
Time TempWeatherWind HumidityBarometerVisibility
4:20 AM
Jan 26
48 °FDrizzle. Fog.20 mph94%30.33 "Hg0 mi
8:50 PM
Jan 25
46 °FPassing clouds.18 mph82%30.42 "HgN/A
8:20 PM46 °FPassing clouds.17 mph82%30.45 "HgN/A
7:50 PM46 °FPassing clouds.14 mph82%30.45 "HgN/A
7:20 PM46 °FPassing clouds.14 mph82%30.45 "HgN/A
6:50 PM46 °FPassing clouds.15 mph82%30.45 "HgN/A
6:20 PM46 °FPassing clouds.20 mph82%30.48 "HgN/A
5:50 PM46 °FPassing clouds.14 mph82%30.48 "HgN/A
5:20 PM45 °FPassing clouds.10 mph87%30.45 "HgN/A
4:50 PM45 °FScattered clouds.10 mph81%30.45 "HgN/A
4:20 PM46 °FScattered clouds.14 mph82%30.48 "HgN/A
3:50 PM48 °FScattered clouds.17 mph76%30.45 "HgN/A
3:20 PM48 °FScattered clouds.13 mph76%30.48 "HgN/A
2:50 PM48 °FBroken clouds.13 mph76%30.48 "HgN/A
2:20 PM48 °FPartly sunny.12 mph71%30.48 "HgN/A
1:50 PM48 °FPartly sunny.7 mph71%30.51 "HgN/A
1:20 PM48 °FPartly sunny.9 mph71%30.51 "HgN/A
12:50 PM48 °FPartly sunny.13 mph82%30.51 "HgN/A
12:20 PM48 °FPartly sunny.12 mph76%30.51 "HgN/A
11:50 AM48 °FPartly sunny.9 mph76%30.51 "HgN/A
11:20 AM48 °FBroken clouds.7 mph71%30.51 "HgN/A
10:50 AM48 °FPartly sunny.6 mph71%30.54 "HgN/A
10:20 AM46 °FPartly sunny.5 mph76%30.54 "HgN/A
9:50 AM46 °FPartly sunny.5 mph76%30.54 "HgN/A
9:20 AM45 °FPartly sunny.5 mph76%30.54 "HgN/A
8:50 AM43 °FPartly sunny.1 mph76%30.54 "HgN/A
8:20 AM45 °FPartly sunny.2 mph71%30.54 "HgN/A
7:50 AM45 °FPartly sunny.5 mph66%30.54 "HgN/A
7:20 AM45 °FPassing clouds.6 mph71%30.54 "HgN/A
6:50 AM43 °FPassing clouds.5 mph71%30.54 "HgN/A
6:20 AM43 °FPassing clouds.6 mph71%30.54 "HgN/A
5:50 AM43 °FPassing clouds.9 mph71%30.54 "HgN/A
5:20 AM43 °FPassing clouds.5 mph71%30.54 "HgN/A
Weather by CustomWeather, © 2014

See weather overviewHow to use our weather pages